Location: Newark
(42.8481°N, 0.4872°E)
Time: 11:50:31
(UTC+00:00)

Explorer 7 - Pass Details

Date: 30 October 2020
Orbit: 484 x 678 km, 50.3° (Epoch: 03 December)

Event Time Altitude Azimuth Distance (km) Brightness Sun altitude
Rises 17:19:24 0° 300° (WNW) 2,581 11.0 -5.5°
Reaches altitude 10° 17:21:38 10° 308° (NW) 1,716 9.9 -5.9°
Maximum altitude 17:25:20 41° 20° (NNE) 764 7.3 -6.6°
Drops below altitude 10° 17:29:12 10° 91° (E) 1,801 8.8 -7.3°
Enters shadow 17:29:33 - 93° (E) 1,933 9.0 -7.4°
